sat.trackr.live / text

‹ back to catalog

SITRO-AIS 27

NORAD 59068 · 2024-039T

PAYLOAD ACTIVE UNKNOWN

§ Identity

Operator
Country
CIS
Launch date
2024-02-29
Launch site
VOSTO
Launch vehicle
Mass (kg)
RCS (m²)

Purposes: tech_demo

External: N2YO · Heavens-Above · Gunter

§ Orbital elements

Epoch: 2026-09-19T23:43:17.804928Z

Period
96.37 min
Inclination
95.3819°
Eccentricity
0.0142386
Mean motion
14.94280350 rev/d
Perigee alt
485.5 km
Apogee alt
683.7 km
Semi-major
6,962.7 km
B*
1.9793e-4
RAAN
300.4021°
Arg perigee
356.3472°
Mean anomaly
3.6701°
Rev number
13,889

§ Raw data

SITRO-AIS 271 59068U 24039T   26262.98840052  .00002563  00000+0  19793-3 0  99972 59068  95.3819 300.4021 0142386 356.3472   3.6701 14.94280350138891

JSON: /api/v1/satellites/59068 · /tle

For live sub-satellite position, see the globe view (requires WebGL).

§ Visibility from observer

Set your observer location to see the next 7 days of passes ≥ 10°. The values pass through the URL so the page stays shareable.

No JS? Fill the form by hand. The geolocation button needs JavaScript.

§ Radio — SatNOGS DB

ModeDescriptionDownlinkUplink
GMSK USP Mode U - GMSK2k4 USP 401.078 MHz

1 transmitter · refreshed weekly from db.satnogs.org